| time (UTC) | temp F | wind direction | speed MPH | gust MPH | rain 1hr in | rain 24hr in | rain mn in | humidity % | barometer mb |
| 20260508072548 | 42 | 190 | 2.0 | 6.0 | 0.00 | 0.02 | 0.00 | 76 | 1014.6 |
| 20260508072048 | 43 | 190 | 2.0 | 5.0 | 0.00 | 0.02 | 0.00 | 75 | 1014.6 |
| 20260508071606 | 43 | 190 | 2.0 | 7.0 | 0.00 | 0.02 | 0.00 | 75 | 1014.6 |
| 20260508071048 | 43 | 0 | 3.0 | 8.0 | 0.00 | 0.02 | 0.00 | 75 | 1014.4 |
| 20260508070548 | 44 | 190 | 5.0 | 12.0 | 0.00 | 0.02 | 0.00 | 75 | 1014.5 |
| 20260508070058 | 44 | 190 | 7.0 | 12.0 | 0.00 | 0.02 | 0.00 | 74 | 1014.5 |
| 20260508065547 | 44 | 190 | 7.0 | 11.0 | 0.00 | 0.02 | 0.00 | 74 | 1014.4 |
| 20260508065047 | 44 | 190 | 5.0 | 11.0 | 0.00 | 0.02 | 0.00 | 75 | 1014.3 |
| 20260508064614 | 44 | 190 | 4.0 | 8.0 | 0.00 | 0.02 | 0.00 | 75 | 1014.3 |
| 20260508064048 | 44 | 190 | 4.0 | 10.0 | 0.00 | 0.02 | 0.00 | 75 | 1014.3 |
| 20260508063549 | 44 | 190 | 3.0 | 10.0 | 0.00 | 0.02 | 0.00 | 76 | 1014.2 |
| 20260508063108 | 44 | 190 | 4.0 | 13.0 | 0.00 | 0.02 | 0.00 | 76 | 1014.3 |
| 20260508062552 | 45 | 190 | 6.0 | 14.0 | 0.00 | 0.02 | 0.00 | 76 | 1014.4 |
| 20260508062048 | 45 | 190 | 8.0 | 14.0 | 0.00 | 0.02 | 0.00 | 76 | 1014.2 |
| 20260508061606 | 45 | 190 | 7.0 | 13.0 | 0.00 | 0.02 | 0.00 | 76 | 1014.3 |
| 20260508061048 | 45 | 190 | 7.0 | 13.0 | 0.00 | 0.02 | 0.00 | 77 | 1014.4 |
| 20260508060548 | 45 | 190 | 6.0 | 13.0 | 0.00 | 0.02 | 0.00 | 77 | 1014.5 |
| 20260508060105 | 44 | 190 | 6.0 | 11.0 | 0.00 | 0.02 | 0.00 | 79 | 1014.5 |
| 20260508055548 | 45 | 190 | 7.0 | 11.0 | 0.00 | 0.02 | 0.00 | 79 | 1014.6 |
| 20260508055048 | 45 | 190 | 7.0 | 14.0 | 0.00 | 0.02 | 0.00 | 79 | 1014.7 |
| 20260508054554 | 45 | 190 | 6.0 | 14.0 | 0.00 | 0.02 | 0.00 | 79 | 1014.8 |
| 20260508054047 | 45 | 190 | 6.0 | 10.0 | 0.00 | 0.02 | 0.00 | 79 | 1014.8 |
| 20260508053548 | 46 | 190 | 6.0 | 10.0 | 0.00 | 0.02 | 0.00 | 78 | 1014.7 |
| 20260508053059 | 46 | 190 | 6.0 | 11.0 | 0.00 | 0.02 | 0.00 | 78 | 1014.7 |
| 20260508052550 | 46 | 190 | 6.0 | 11.0 | 0.00 | 0.02 | 0.00 | 77 | 1014.6 |
| 20260508052048 | 46 | 190 | 7.0 | 11.0 | 0.00 | 0.02 | 0.00 | 77 | 1014.5 |
| 20260508051606 | 46 | 190 | 6.0 | 16.0 | 0.00 | 0.02 | 0.00 | 77 | 1014.6 |
| 20260508051049 | 46 | 190 | 8.0 | 16.0 | 0.00 | 0.02 | 0.00 | 76 | 1014.6 |
| 20260508050552 | 47 | 190 | 8.0 | 16.0 | 0.00 | 0.02 | 0.00 | 76 | 1014.5 |
| 20260508050053 | 47 | 190 | 7.0 | 10.0 | 0.00 | 0.02 | 0.00 | 76 | 1014.5 |
| 20260508045548 | 47 | 190 | 6.0 | 10.0 | 0.00 | 0.02 | 0.00 | 76 | 1014.4 |
| 20260508045048 | 47 | 190 | 6.0 | 10.0 | 0.00 | 0.02 | 0.00 | 77 | 1014.3 |
| 20260508044551 | 47 | 190 | 5.0 | 10.0 | 0.00 | 0.02 | 0.00 | 76 | 1014.2 |
| 20260508044049 | 47 | 190 | 5.0 | 10.0 | 0.00 | 0.02 | 0.00 | 76 | 1014.1 |
| 20260508043551 | 47 | 190 | 3.0 | 9.0 | 0.00 | 0.02 | 0.00 | 77 | 1014.1 |
| 20260508043052 | 47 | 190 | 6.0 | 9.0 | 0.00 | 0.02 | 0.00 | 77 | 1014.1 |
| 20260508042548 | 47 | 190 | 5.0 | 10.0 | 0.00 | 0.02 | 0.00 | 77 | 1014.2 |
| 20260508042048 | 47 | 190 | 5.0 | 10.0 | 0.00 | 0.02 | 0.00 | 77 | 1014.2 |
| 20260508041551 | 47 | 190 | 5.0 | 10.0 | 0.00 | 0.02 | 0.00 | 77 | 1014.3 |
| 20260508041048 | 47 | 190 | 5.0 | 10.0 | 0.00 | 0.02 | 0.00 | 77 | 1014.2 |
| 20260508040547 | 47 | 190 | 6.0 | 11.0 | 0.00 | 0.02 | 0.00 | 77 | 1014.1 |
| 20260508040056 | 47 | 190 | 6.0 | 11.0 | 0.00 | 0.02 | 0.00 | 78 | 1014.1 |
| 20260508035548 | 47 | 190 | 7.0 | 12.0 | 0.00 | 0.08 | 0.02 | 78 | 1014.1 |
| 20260508035048 | 47 | 190 | 7.0 | 12.0 | 0.00 | 0.08 | 0.02 | 78 | 1014.0 |
| 20260508034553 | 47 | 190 | 7.0 | 13.0 | 0.00 | 0.08 | 0.02 | 78 | 1013.9 |
| 20260508034048 | 48 | 190 | 7.0 | 13.0 | 0.00 | 0.08 | 0.02 | 78 | 1013.9 |
| 20260508033547 | 48 | 190 | 8.0 | 13.0 | 0.00 | 0.08 | 0.02 | 78 | 1013.9 |
| 20260508033057 | 48 | 190 | 8.0 | 13.0 | 0.00 | 0.08 | 0.02 | 78 | 1013.8 |
| 20260508032548 | 48 | 190 | 8.0 | 13.0 | 0.00 | 0.08 | 0.02 | 78 | 1013.8 |
| 20260508032048 | 48 | 190 | 8.0 | 12.0 | 0.00 | 0.08 | 0.02 | 78 | 1013.9 |
| 20260508031557 | 48 | 190 | 8.0 | 11.0 | 0.00 | 0.08 | 0.02 | 79 | 1013.9 |
| 20260508031048 | 48 | 190 | 7.0 | 12.0 | 0.00 | 0.08 | 0.02 | 79 | 1013.8 |
| 20260508030548 | 48 | 190 | 8.0 | 13.0 | 0.00 | 0.08 | 0.02 | 79 | 1013.8 |
| 20260508030059 | 48 | 190 | 7.0 | 13.0 | 0.00 | 0.08 | 0.02 | 79 | 1013.7 |
| 20260508025552 | 48 | 190 | 7.0 | 11.0 | 0.00 | 0.18 | 0.02 | 79 | 1013.7 |
| 20260508025048 | 48 | 190 | 7.0 | 11.0 | 0.00 | 0.18 | 0.02 | 78 | 1013.6 |
| 20260508024617 | 48 | 190 | 6.0 | 11.0 | 0.00 | 0.18 | 0.02 | 78 | 1013.5 |
| 20260508024048 | 48 | 190 | 6.0 | 10.0 | 0.00 | 0.18 | 0.02 | 78 | 1013.5 |
| 20260508023548 | 48 | 190 | 6.0 | 10.0 | 0.00 | 0.18 | 0.02 | 78 | 1013.5 |
| 20260508023053 | 48 | 190 | 7.0 | 10.0 | 0.00 | 0.18 | 0.02 | 78 | 1013.4 |
| 20260508022548 | 48 | 190 | 6.0 | 11.0 | 0.00 | 0.18 | 0.02 | 78 | 1013.4 |
| 20260508022048 | 48 | 190 | 6.0 | 11.0 | 0.00 | 0.18 | 0.02 | 78 | 1013.4 |
| 20260508021558 | 48 | 190 | 8.0 | 11.0 | 0.00 | 0.18 | 0.02 | 78 | 1013.3 |
| 20260508021048 | 48 | 190 | 7.0 | 10.0 | 0.00 | 0.18 | 0.02 | 78 | 1013.2 |
| 20260508020622 | 49 | 190 | 7.0 | 12.0 | 0.00 | 0.18 | 0.02 | 77 | 1013.2 |
| 20260508020054 | 49 | 190 | 6.0 | 12.0 | 0.00 | 0.18 | 0.02 | 77 | 1013.1 |
| 20260508015551 | 49 | 190 | 7.0 | 13.0 | 0.00 | 0.18 | 0.02 | 77 | 1013.0 |
| 20260508015048 | 49 | 190 | 7.0 | 13.0 | 0.00 | 0.18 | 0.02 | 77 | 1012.8 |
| 20260508014554 | 49 | 190 | 8.0 | 12.0 | 0.00 | 0.18 | 0.02 | 77 | 1012.9 |
| 20260508014048 | 49 | 190 | 8.0 | 11.0 | 0.00 | 0.18 | 0.02 | 76 | 1012.8 |
| 20260508013550 | 49 | 190 | 7.0 | 12.0 | 0.00 | 0.18 | 0.02 | 76 | 1012.7 |
| 20260508013054 | 49 | 190 | 7.0 | 12.0 | 0.00 | 0.18 | 0.02 | 76 | 1012.6 |
| 20260508012549 | 49 | 190 | 7.0 | 12.0 | 0.00 | 0.18 | 0.02 | 76 | 1012.4 |
| 20260508012049 | 50 | 190 | 7.0 | 13.0 | 0.00 | 0.18 | 0.02 | 75 | 1012.3 |
| 20260508011602 | 50 | 190 | 7.0 | 13.0 | 0.00 | 0.18 | 0.02 | 75 | 1012.3 |
| 20260508011050 | 50 | 190 | 6.0 | 11.0 | 0.00 | 0.18 | 0.02 | 75 | 1012.3 |
| 20260508010549 | 50 | 190 | 6.0 | 12.0 | 0.00 | 0.18 | 0.02 | 75 | 1012.1 |
| 20260508010058 | 50 | 190 | 6.0 | 12.0 | 0.00 | 0.18 | 0.02 | 75 | 1012.2 |
| 20260508005551 | 50 | 190 | 6.0 | 12.0 | 0.00 | 0.18 | 0.02 | 74 | 1012.0 |
| 20260508005049 | 50 | 190 | 6.0 | 11.0 | 0.00 | 0.18 | 0.02 | 74 | 1012.1 |
| 20260508004601 | 51 | 190 | 4.0 | 10.0 | 0.00 | 0.18 | 0.02 | 74 | 1012.1 |
| 20260508004049 | 51 | 190 | 6.0 | 11.0 | 0.00 | 0.18 | 0.02 | 73 | 1012.2 |
| 20260508003548 | 51 | 190 | 5.0 | 11.0 | 0.00 | 0.18 | 0.02 | 73 | 1012.1 |
| 20260508003100 | 51 | 190 | 4.0 | 9.0 | 0.00 | 0.18 | 0.02 | 73 | 1012.2 |
| 20260508002548 | 51 | 190 | 5.0 | 10.0 | 0.00 | 0.18 | 0.02 | 72 | 1012.1 |
| 20260508002049 | 52 | 190 | 5.0 | 12.0 | 0.00 | 0.18 | 0.02 | 71 | 1012.2 |
| 20260508001556 | 52 | 190 | 5.0 | 13.0 | 0.00 | 0.18 | 0.02 | 70 | 1012.2 |
| 20260508001048 | 52 | 190 | 8.0 | 13.0 | 0.00 | 0.18 | 0.02 | 70 | 1012.1 |
| 20260508000548 | 52 | 190 | 5.0 | 13.0 | 0.00 | 0.18 | 0.02 | 69 | 1012.1 |
| 20260508000054 | 53 | 190 | 5.0 | 13.0 | 0.00 | 0.18 | 0.02 | 68 | 1012.0 |
| 20260507235548 | 53 | 190 | 7.0 | 16.0 | 0.00 | 0.18 | 0.02 | 67 | 1012.0 |
| 20260507235048 | 53 | 190 | 7.0 | 17.0 | 0.00 | 0.18 | 0.02 | 67 | 1012.0 |
| 20260507234553 | 53 | 190 | 8.0 | 17.0 | 0.00 | 0.18 | 0.02 | 67 | 1011.9 |
| 20260507234048 | 54 | 190 | 8.0 | 18.0 | 0.00 | 0.18 | 0.02 | 66 | 1011.9 |
| 20260507233548 | 54 | 190 | 8.0 | 18.0 | 0.00 | 0.18 | 0.02 | 66 | 1011.9 |
| 20260507233100 | 54 | 190 | 9.0 | 18.0 | 0.00 | 0.18 | 0.02 | 66 | 1011.7 |
| 20260507232548 | 55 | 190 | 7.0 | 13.0 | 0.00 | 0.18 | 0.02 | 68 | 1011.6 |
| 20260507232051 | 55 | 190 | 6.0 | 16.0 | 0.00 | 0.18 | 0.02 | 67 | 1011.6 |
| 20260507231559 | 54 | 190 | 7.0 | 16.0 | 0.00 | 0.18 | 0.02 | 68 | 1011.4 |
| 20260507231048 | 54 | 190 | 8.0 | 18.0 | 0.00 | 0.18 | 0.02 | 68 | 1011.3 |
| 20260507230550 | 54 | 190 | 7.0 | 18.0 | 0.00 | 0.18 | 0.02 | 69 | 1011.2 |
| 20260507230107 | 54 | 190 | 9.0 | 16.0 | 0.00 | 0.18 | 0.02 | 69 | 1011.0 |
| 20260507225548 | 54 | 190 | 8.0 | 16.0 | 0.00 | 0.18 | 0.02 | 70 | 1011.2 |
| 20260507225048 | 54 | 190 | 8.0 | 25.0 | 0.00 | 0.18 | 0.02 | 69 | 1011.2 |
| 20260507224556 | 55 | 190 | 9.0 | 25.0 | 0.00 | 0.18 | 0.02 | 69 | 1011.2 |
| 20260507224052 | 55 | 190 | 11.0 | 23.0 | 0.00 | 0.18 | 0.02 | 69 | 1011.0 |
| 20260507223548 | 55 | 190 | 10.0 | 23.0 | 0.00 | 0.18 | 0.02 | 71 | 1011.0 |
| 20260507223052 | 55 | 190 | 8.0 | 14.0 | 0.00 | 0.18 | 0.02 | 71 | 1010.8 |
| 20260507222547 | 55 | 190 | 7.0 | 13.0 | 0.00 | 0.18 | 0.02 | 72 | 1010.8 |
| 20260507222047 | 55 | 190 | 6.0 | 15.0 | 0.00 | 0.18 | 0.02 | 71 | 1010.7 |
| 20260507221551 | 56 | 190 | 7.0 | 15.0 | 0.00 | 0.18 | 0.02 | 72 | 1010.8 |
| 20260507221048 | 56 | 190 | 6.0 | 12.0 | 0.00 | 0.18 | 0.02 | 72 | 1010.7 |
| 20260507220547 | 56 | 190 | 8.0 | 15.0 | 0.00 | 0.18 | 0.02 | 72 | 1010.7 |
| 20260507220054 | 56 | 190 | 6.0 | 15.0 | 0.00 | 0.18 | 0.02 | 74 | 1010.6 |
| 20260507215548 | 56 | 190 | 6.0 | 11.0 | 0.00 | 0.18 | 0.02 | 74 | 1010.5 |
| 20260507215048 | 56 | 190 | 6.0 | 13.0 | 0.00 | 0.18 | 0.02 | 75 | 1010.6 |
| 20260507214551 | 56 | 190 | 7.0 | 14.0 | 0.00 | 0.18 | 0.02 | 75 | 1010.6 |
| 20260507214048 | 55 | 190 | 6.0 | 14.0 | 0.00 | 0.18 | 0.02 | 75 | 1010.8 |
| 20260507213548 | 55 | 190 | 6.0 | 14.0 | 0.00 | 0.18 | 0.02 | 75 | 1010.8 |
| 20260507213048 | 54 | 190 | 6.0 | 14.0 | 0.00 | 0.18 | 0.02 | 77 | 1010.9 |
| 20260507212548 | 55 | 190 | 8.0 | 16.0 | 0.00 | 0.18 | 0.02 | 77 | 1011.0 |
| 20260507212048 | 55 | 190 | 8.0 | 16.0 | 0.00 | 0.18 | 0.02 | 76 | 1010.8 |
| 20260507211551 | 56 | 190 | 9.0 | 15.0 | 0.00 | 0.18 | 0.02 | 76 | 1010.7 |
| 20260507211048 | 56 | 190 | 7.0 | 23.0 | 0.00 | 0.18 | 0.02 | 76 | 1010.5 |
| 20260507210550 | 56 | 190 | 8.0 | 23.0 | 0.00 | 0.18 | 0.02 | 76 | 1010.4 |
| 20260507210105 | 56 | 190 | 8.0 | 18.0 | 0.00 | 0.18 | 0.02 | 75 | 1010.4 |
| 20260507205548 | 56 | 190 | 8.0 | 17.0 | 0.00 | 0.18 | 0.02 | 75 | 1010.3 |
| 20260507205048 | 56 | 190 | 8.0 | 17.0 | 0.00 | 0.18 | 0.02 | 75 | 1010.3 |
| 20260507204549 | 56 | 190 | 6.0 | 15.0 | 0.00 | 0.18 | 0.02 | 75 | 1010.2 |
| 20260507204047 | 56 | 190 | 7.0 | 15.0 | 0.00 | 0.18 | 0.02 | 75 | 1010.2 |
| 20260507203547 | 56 | 190 | 8.0 | 15.0 | 0.00 | 0.18 | 0.02 | 75 | 1010.3 |
| 20260507203114 | 56 | 190 | 5.0 | 23.0 | 0.00 | 0.18 | 0.02 | 76 | 1010.2 |
| 20260507202547 | 56 | 190 | 8.0 | 23.0 | 0.00 | 0.18 | 0.02 | 75 | 1010.1 |
| 20260507202052 | 57 | 190 | 5.0 | 14.0 | 0.00 | 0.18 | 0.02 | 75 | 1010.1 |
| 20260507201551 | 56 | 190 | 1.0 | 7.0 | 0.00 | 0.18 | 0.02 | 81 | 1010.2 |
| 20260507201048 | 55 | 190 | 1.0 | 7.0 | 0.00 | 0.18 | 0.02 | 80 | 1010.2 |
| 20260507200547 | 54 | 190 | 1.0 | 8.0 | 0.00 | 0.18 | 0.02 | 80 | 1010.2 |
| 20260507200053 | 54 | 190 | 4.0 | 8.0 | 0.00 | 0.18 | 0.02 | 81 | 1010.3 |
| 20260507195548 | 53 | 190 | 2.0 | 8.0 | 0.00 | 0.18 | 0.02 | 80 | 1010.4 |
| 20260507195050 | 53 | 190 | 1.0 | 9.0 | 0.00 | 0.18 | 0.02 | 81 | 1010.8 |
| 20260507194601 | 53 | 190 | 4.0 | 9.0 | 0.00 | 0.18 | 0.02 | 81 | 1010.9 |
| 20260507194047 | 53 | 190 | 4.0 | 8.0 | 0.00 | 0.18 | 0.02 | 81 | 1011.0 |
| 20260507193548 | 53 | 190 | 4.0 | 8.0 | 0.00 | 0.18 | 0.02 | 81 | 1011.0 |
| 20260507193058 | 53 | 190 | 3.0 | 8.0 | 0.00 | 0.18 | 0.02 | 82 | 1011.2 |
| 20260507192547 | 53 | 190 | 3.0 | 9.0 | 0.00 | 0.18 | 0.02 | 83 | 1011.3 |
| 20260507192047 | 52 | 190 | 3.0 | 11.0 | 0.00 | 0.18 | 0.02 | 83 | 1011.2 |
| 20260507191550 | 52 | 190 | 4.0 | 13.0 | 0.00 | 0.18 | 0.02 | 83 | 1011.3 |
| 20260507191047 | 52 | 190 | 5.0 | 13.0 | 0.00 | 0.18 | 0.02 | 83 | 1011.4 |
| 20260507190549 | 52 | 190 | 4.0 | 13.0 | 0.00 | 0.18 | 0.02 | 85 | 1011.4 |
| 20260507190057 | 52 | 190 | 4.0 | 13.0 | 0.01 | 0.18 | 0.02 | 86 | 1011.5 |
| 20260507185547 | 52 | 190 | 3.0 | 9.0 | 0.01 | 0.18 | 0.02 | 89 | 1011.5 |
| 20260507185048 | 51 | 190 | 4.0 | 13.0 | 0.01 | 0.18 | 0.02 | 88 | 1011.6 |
| 20260507184551 | 51 | 190 | 5.0 | 13.0 | 0.01 | 0.18 | 0.02 | 88 | 1011.6 |
| 20260507184048 | 51 | 190 | 5.0 | 8.0 | 0.01 | 0.18 | 0.02 | 89 | 1011.6 |
| 20260507183548 | 51 | 190 | 4.0 | 9.0 | 0.01 | 0.18 | 0.02 | 90 | 1011.4 |
| 20260507183056 | 51 | 190 | 3.0 | 9.0 | 0.01 | 0.18 | 0.02 | 91 | 1011.5 |
| 20260507182549 | 50 | 190 | 2.0 | 6.0 | 0.01 | 0.18 | 0.02 | 92 | 1011.4 |
| 20260507182048 | 50 | 190 | 2.0 | 5.0 | 0.01 | 0.18 | 0.02 | 92 | 1011.4 |
| 20260507181553 | 50 | 190 | 1.0 | 8.0 | 0.01 | 0.18 | 0.02 | 92 | 1011.6 |
| 20260507181048 | 49 | 190 | 3.0 | 8.0 | 0.01 | 0.18 | 0.02 | 92 | 1011.6 |
| 20260507180549 | 50 | 190 | 3.0 | 9.0 | 0.00 | 0.17 | 0.01 | 91 | 1011.7 |
| 20260507180052 | 50 | 190 | 4.0 | 9.0 | 0.00 | 0.17 | 0.01 | 90 | 1011.6 |
| 20260507175547 | 50 | 190 | 3.0 | 9.0 | 0.00 | 0.17 | 0.01 | 89 | 1011.7 |
| 20260507175048 | 50 | 190 | 3.0 | 9.0 | 0.00 | 0.17 | 0.01 | 89 | 1011.7 |
| 20260507174551 | 50 | 190 | 5.0 | 11.0 | 0.00 | 0.17 | 0.01 | 88 | 1011.7 |
| 20260507174047 | 51 | 190 | 3.0 | 11.0 | 0.00 | 0.17 | 0.01 | 88 | 1011.6 |
| 20260507173547 | 51 | 190 | 3.0 | 9.0 | 0.00 | 0.17 | 0.01 | 88 | 1011.7 |
| 20260507173124 | 51 | 190 | 3.0 | 9.0 | 0.00 | 0.17 | 0.01 | 88 | 1011.8 |
| 20260507172546 | 51 | 190 | 4.0 | 9.0 | 0.00 | 0.17 | 0.01 | 88 | 1011.7 |
| 20260507172048 | 51 | 190 | 4.0 | 8.0 | 0.00 | 0.17 | 0.01 | 88 | 1011.6 |
| 20260507171558 | 51 | 190 | 4.0 | 9.0 | 0.00 | 0.17 | 0.01 | 88 | 1011.8 |
| 20260507171048 | 51 | 190 | 3.0 | 10.0 | 0.00 | 0.17 | 0.01 | 88 | 1011.7 |
| 20260507170548 | 51 | 190 | 4.0 | 10.0 | 0.00 | 0.17 | 0.01 | 88 | 1011.7 |
| 20260507170050 | 51 | 190 | 3.0 | 10.0 | 0.00 | 0.17 | 0.01 | 88 | 1011.7 |
| 20260507165548 | 51 | 190 | 3.0 | 8.0 | 0.00 | 0.17 | 0.01 | 88 | 1011.7 |
| 20260507165047 | 51 | 190 | 2.0 | 8.0 | 0.00 | 0.17 | 0.01 | 87 | 1011.7 |
| 20260507164551 | 52 | 190 | 2.0 | 6.0 | 0.00 | 0.17 | 0.01 | 88 | 1011.7 |
| 20260507164047 | 52 | 190 | 1.0 | 5.0 | 0.00 | 0.17 | 0.01 | 88 | 1011.7 |
| 20260507163547 | 51 | 190 | 1.0 | 7.0 | 0.00 | 0.17 | 0.01 | 88 | 1011.8 |
| 20260507163047 | 51 | 190 | 2.0 | 7.0 | 0.00 | 0.17 | 0.01 | 89 | 1011.7 |
| 20260507162550 | 51 | 190 | 1.0 | 8.0 | 0.00 | 0.17 | 0.01 | 89 | 1011.8 |
| 20260507162048 | 51 | 190 | 3.0 | 8.0 | 0.00 | 0.17 | 0.01 | 89 | 1011.9 |
| 20260507161551 | 51 | 190 | 4.0 | 7.0 | 0.00 | 0.17 | 0.01 | 88 | 1011.8 |
| 20260507161047 | 52 | 190 | 2.0 | 7.0 | 0.00 | 0.17 | 0.01 | 89 | 1011.8 |
| 20260507160546 | 52 | 190 | 2.0 | 6.0 | 0.00 | 0.17 | 0.01 | 89 | 1011.8 |
| 20260507160059 | 52 | 190 | 3.0 | 8.0 | 0.00 | 0.17 | 0.01 | 89 | 1011.8 |
| 20260507155547 | 52 | 190 | 2.0 | 9.0 | 0.00 | 0.17 | 0.01 | 90 | 1011.8 |
| 20260507155047 | 52 | 190 | 4.0 | 9.0 | 0.00 | 0.17 | 0.01 | 89 | 1011.8 |
| 20260507154551 | 52 | 190 | 3.0 | 9.0 | 0.00 | 0.17 | 0.01 | 89 | 1011.9 |
| 20260507154048 | 52 | 190 | 4.0 | 9.0 | 0.00 | 0.17 | 0.01 | 90 | 1011.9 |
| 20260507153548 | 52 | 190 | 5.0 | 11.0 | 0.00 | 0.17 | 0.01 | 90 | 1012.0 |
| 20260507153057 | 52 | 190 | 6.0 | 11.0 | 0.00 | 0.17 | 0.01 | 90 | 1012.1 |
| 20260507152548 | 53 | 190 | 6.0 | 11.0 | 0.00 | 0.17 | 0.01 | 89 | 1012.0 |
| 20260507152048 | 53 | 190 | 5.0 | 11.0 | 0.00 | 0.17 | 0.01 | 89 | 1012.0 |
| 20260507151555 | 53 | 190 | 3.0 | 8.0 | 0.00 | 0.17 | 0.01 | 89 | 1011.9 |
| 20260507151047 | 53 | 190 | 6.0 | 8.0 | 0.00 | 0.17 | 0.01 | 90 | 1011.9 |
| 20260507150547 | 53 | 190 | 5.0 | 10.0 | 0.00 | 0.17 | 0.01 | 90 | 1011.9 |
| 20260507150054 | 53 | 190 | 3.0 | 10.0 | 0.00 | 0.17 | 0.01 | 91 | 1011.9 |
| 20260507145548 | 53 | 190 | 5.0 | 11.0 | 0.00 | 0.18 | 0.01 | 91 | 1011.8 |
| 20260507145047 | 53 | 190 | 3.0 | 11.0 | 0.00 | 0.18 | 0.01 | 91 | 1011.8 |
| 20260507144603 | 53 | 190 | 5.0 | 11.0 | 0.00 | 0.18 | 0.01 | 90 | 1012.1 |
| 20260507144047 | 53 | 190 | 5.0 | 12.0 | 0.00 | 0.18 | 0.01 | 90 | 1011.7 |
| 20260507143547 | 53 | 190 | 5.0 | 12.0 | 0.00 | 0.18 | 0.01 | 90 | 1011.7 |
| 20260507143101 | 53 | 190 | 4.0 | 10.0 | 0.00 | 0.18 | 0.01 | 90 | 1011.8 |
| 20260507142548 | 53 | 190 | 4.0 | 9.0 | 0.00 | 0.18 | 0.01 | 91 | 1011.8 |
| 20260507142049 | 53 | 190 | 4.0 | 9.0 | 0.00 | 0.18 | 0.01 | 91 | 1011.9 |
| 20260507141600 | 53 | 190 | 4.0 | 9.0 | 0.00 | 0.18 | 0.01 | 92 | 1011.6 |
| 20260507141048 | 52 | 190 | 4.0 | 9.0 | 0.00 | 0.18 | 0.01 | 93 | 1011.7 |
| 20260507140548 | 52 | 190 | 4.0 | 10.0 | 0.00 | 0.18 | 0.01 | 93 | 1012.0 |
| 20260507140106 | 52 | 190 | 5.0 | 10.0 | 0.00 | 0.18 | 0.01 | 92 | 1012.0 |
| 20260507135548 | 52 | 190 | 5.0 | 9.0 | 0.00 | 0.21 | 0.01 | 92 | 1012.1 |
| 20260507135048 | 53 | 190 | 2.0 | 6.0 | 0.00 | 0.21 | 0.01 | 93 | 1011.8 |
| 20260507134556 | 53 | 190 | 3.0 | 6.0 | 0.00 | 0.21 | 0.01 | 93 | 1011.8 |
| 20260507134047 | 52 | 190 | 1.0 | 6.0 | 0.00 | 0.21 | 0.01 | 93 | 1011.4 |
| 20260507133548 | 52 | 190 | 2.0 | 6.0 | 0.00 | 0.21 | 0.01 | 93 | 1011.9 |
| 20260507133137 | 52 | 190 | 2.0 | 7.0 | 0.00 | 0.21 | 0.01 | 93 | 1012.2 |
| 20260507132546 | 52 | 190 | 3.0 | 7.0 | 0.00 | 0.21 | 0.01 | 93 | 1012.4 |
| 20260507132047 | 52 | 190 | 3.0 | 7.0 | 0.00 | 0.21 | 0.01 | 93 | 1012.3 |
| 20260507131552 | 52 | 190 | 3.0 | 6.0 | 0.00 | 0.21 | 0.01 | 93 | 1012.3 |
| 20260507131049 | 52 | 190 | 2.0 | 8.0 | 0.00 | 0.21 | 0.01 | 94 | 1012.2 |
| 20260507130553 | 52 | 190 | 4.0 | 8.0 | 0.00 | 0.21 | 0.01 | 93 | 1012.4 |
| 20260507125549 | 52 | 190 | 3.0 | 6.0 | 0.00 | 0.22 | 0.01 | 93 | 1012.7 |
| 20260507125051 | 52 | 190 | 2.0 | 6.0 | 0.00 | 0.22 | 0.01 | 94 | 1012.7 |
| 20260507124556 | 52 | 190 | 3.0 | 6.0 | 0.00 | 0.22 | 0.01 | 94 | 1012.5 |
| 20260507124049 | 52 | 190 | 3.0 | 6.0 | 0.00 | 0.22 | 0.01 | 94 | 1012.4 |
| 20260507123549 | 52 | 190 | 3.0 | 6.0 | 0.00 | 0.22 | 0.01 | 94 | 1012.4 |
| 20260507123053 | 52 | 190 | 2.0 | 9.0 | 0.00 | 0.22 | 0.01 | 94 | 1012.5 |
| 20260507122549 | 52 | 190 | 2.0 | 9.0 | 0.00 | 0.22 | 0.01 | 94 | 1012.4 |
| 20260507122048 | 52 | 190 | 5.0 | 9.0 | 0.00 | 0.22 | 0.01 | 94 | 1012.8 |
| 20260507121550 | 52 | 190 | 4.0 | 7.0 | 0.00 | 0.22 | 0.01 | 94 | 1012.6 |
| 20260507121049 | 52 | 190 | 3.0 | 7.0 | 0.00 | 0.22 | 0.01 | 95 | 1012.5 |
| 20260507120548 | 52 | 190 | 2.0 | 5.0 | 0.00 | 0.22 | 0.01 | 95 | 1012.3 |
| 20260507120052 | 52 | 190 | 2.0 | 7.0 | 0.00 | 0.22 | 0.01 | 95 | 1012.1 |
| 20260507115550 | 52 | 190 | 2.0 | 7.0 | 0.00 | 0.22 | 0.01 | 95 | 1012.0 |
| 20260507115049 | 52 | 190 | 3.0 | 6.0 | 0.00 | 0.22 | 0.01 | 95 | 1012.2 |
| 20260507114609 | 52 | 190 | 1.0 | 6.0 | 0.00 | 0.22 | 0.01 | 95 | 1012.2 |
| 20260507114049 | 52 | 190 | 1.0 | 7.0 | 0.00 | 0.22 | 0.01 | 95 | 1012.1 |
| 20260507113549 | 52 | 190 | 3.0 | 7.0 | 0.00 | 0.22 | 0.01 | 95 | 1012.1 |
| 20260507113051 | 52 | 190 | 2.0 | 6.0 | 0.00 | 0.22 | 0.01 | 95 | 1012.2 |
| 20260507112549 | 52 | 190 | 3.0 | 6.0 | 0.00 | 0.22 | 0.01 | 95 | 1012.0 |
| 20260507112052 | 52 | 190 | 2.0 | 5.0 | 0.00 | 0.22 | 0.01 | 95 | 1012.1 |
| 20260507111551 | 52 | 190 | 2.0 | 5.0 | 0.00 | 0.22 | 0.01 | 95 | 1012.1 |
| 20260507111049 | 52 | 190 | 2.0 | 5.0 | 0.00 | 0.22 | 0.01 | 95 | 1011.9 |
| 20260507110553 | 52 | 190 | 1.0 | 3.0 | 0.00 | 0.22 | 0.01 | 95 | 1011.8 |
| 20260507110050 | 52 | 190 | 1.0 | 4.0 | 0.00 | 0.22 | 0.01 | 95 | 1011.6 |
| 20260507105548 | 52 | 190 | 1.0 | 6.0 | 0.00 | 0.22 | 0.01 | 95 | 1011.6 |
| 20260507105049 | 52 | 190 | 2.0 | 6.0 | 0.00 | 0.22 | 0.01 | 95 | 1011.5 |
| 20260507104553 | 52 | 190 | 3.0 | 5.0 | 0.00 | 0.22 | 0.01 | 95 | 1011.7 |
| 20260507104049 | 52 | 190 | 2.0 | 5.0 | 0.00 | 0.22 | 0.01 | 95 | 1011.7 |
| 20260507103549 | 53 | 190 | 1.0 | 4.0 | 0.00 | 0.22 | 0.01 | 95 | 1011.6 |
| 20260507103055 | 53 | 190 | 1.0 | 4.0 | 0.00 | 0.22 | 0.01 | 95 | 1011.6 |
| 20260507102548 | 53 | 190 | 2.0 | 4.0 | 0.00 | 0.22 | 0.01 | 95 | 1011.8 |
| 20260507102050 | 53 | 190 | 1.0 | 4.0 | 0.00 | 0.22 | 0.01 | 95 | 1011.8 |
| 20260507101550 | 53 | 0 | 1.0 | 6.0 | 0.00 | 0.22 | 0.01 | 95 | 1011.8 |
| 20260507101052 | 53 | 190 | 2.0 | 6.0 | 0.00 | 0.22 | 0.01 | 95 | 1011.9 |
| 20260507100552 | 54 | 190 | 1.0 | 4.0 | 0.00 | 0.22 | 0.01 | 95 | 1012.2 |
| 20260507100054 | 54 | 0 | 0.0 | 4.0 | 0.00 | 0.22 | 0.01 | 95 | 1011.7 |
| 20260507095552 | 54 | 190 | 1.0 | 3.0 | 0.01 | 0.22 | 0.01 | 95 | 1011.4 |
| 20260507095049 | 54 | 0 | 0.0 | 2.0 | 0.01 | 0.22 | 0.01 | 95 | 1011.4 |
| 20260507094559 | 54 | 190 | 0.0 | 2.0 | 0.01 | 0.22 | 0.01 | 95 | 1011.3 |
| 20260507094049 | 54 | 190 | 0.0 | 2.0 | 0.01 | 0.22 | 0.01 | 95 | 1011.4 |
| 20260507093549 | 55 | 0 | 0.0 | 2.0 | 0.01 | 0.22 | 0.01 | 95 | 1011.3 |
| 20260507093052 | 55 | 190 | 0.0 | 2.0 | 0.01 | 0.22 | 0.01 | 95 | 1011.0 |
| 20260507092549 | 55 | 190 | 0.0 | 2.0 | 0.01 | 0.22 | 0.01 | 95 | 1010.8 |
| 20260507092048 | 55 | 0 | 0.0 | 0.0 | 0.01 | 0.22 | 0.01 | 95 | 1011.0 |
| 20260507091554 | 55 | 0 | 0.0 | 0.0 | 0.01 | 0.22 | 0.01 | 95 | 1011.4 |
| 20260507091049 | 55 | 0 | 0.0 | 1.0 | 0.01 | 0.22 | 0.01 | 95 | 1011.3 |
| 20260507090551 | 55 | 0 | 0.0 | 1.0 | 0.01 | 0.22 | 0.01 | 95 | 1011.2 |
| 20260507090054 | 55 | 0 | 0.0 | 1.0 | 0.01 | 0.22 | 0.01 | 95 | 1011.2 |
| 20260507085548 | 55 | 0 | 0.0 | 1.0 | 0.00 | 0.21 | 0.00 | 95 | 1011.0 |
| 20260507085049 | 55 | 0 | 0.0 | 1.0 | 0.00 | 0.21 | 0.00 | 95 | 1011.1 |
| 20260507084549 | 55 | 0 | 0.0 | 2.0 | 0.00 | 0.21 | 0.00 | 95 | 1011.2 |
| 20260507084049 | 55 | 190 | 0.0 | 2.0 | 0.00 | 0.21 | 0.00 | 95 | 1011.4 |
| 20260507083548 | 56 | 190 | 0.0 | 2.0 | 0.00 | 0.21 | 0.00 | 95 | 1011.4 |
| 20260507083053 | 56 | 0 | 0.0 | 2.0 | 0.00 | 0.21 | 0.00 | 95 | 1011.6 |
| 20260507082548 | 56 | 0 | 0.0 | 2.0 | 0.00 | 0.21 | 0.00 | 95 | 1011.5 |
| 20260507082049 | 56 | 190 | 0.0 | 4.0 | 0.00 | 0.21 | 0.00 | 95 | 1011.4 |
| 20260507081551 | 56 | 0 | 1.0 | 5.0 | 0.00 | 0.21 | 0.00 | 95 | 1011.3 |
| 20260507081051 | 56 | 190 | 0.0 | 5.0 | 0.00 | 0.21 | 0.00 | 95 | 1011.7 |
| 20260507080549 | 57 | 190 | 0.0 | 3.0 | 0.00 | 0.21 | 0.00 | 95 | 1011.8 |
| 20260507080056 | 57 | 190 | 0.0 | 4.0 | 0.00 | 0.21 | 0.00 | 95 | 1011.6 |
| 20260507075549 | 57 | 190 | 0.0 | 7.0 | 0.00 | 0.21 | 0.00 | 95 | 1011.8 |
| 20260507075049 | 57 | 190 | 1.0 | 7.0 | 0.00 | 0.21 | 0.00 | 95 | 1011.7 |
| 20260507074557 | 57 | 190 | 2.0 | 5.0 | 0.00 | 0.21 | 0.00 | 95 | 1011.7 |
| 20260507074048 | 58 | 0 | 0.0 | 5.0 | 0.00 | 0.21 | 0.00 | 95 | 1011.5 |
| 20260507073548 | 58 | 190 | 2.0 | 4.0 | 0.00 | 0.21 | 0.00 | 95 | 1011.5 |
| 20260507073101 | 58 | 190 | 1.0 | 4.0 | 0.00 | 0.21 | 0.00 | 95 | 1011.7 |